彩虹 1星 (RADUGA 1)

导读 | 豆包AI

RADUGA 1(“虹”1号,也译彩虹1号)是苏联(独联体CIS)“虹”系列地球同步轨道通信卫星的首发星,于1975年12月22日发射。该卫星由应用力学设计局研制,采用KAUR-3平台,发射质量约2000千克,设计寿命3年,携带C频段转发器,可提供军事与民用通信服务,是苏联首个地球同步轨道通信卫星系列的开端。

基本信息
目录编号:
8513
目录名称:
RADUGA 1
国际标识:
1975-123A
轨道中心:
EARTH
卫星名称:
彩虹 1星
卫星全名:
彩虹 1星 (RADUGA 1)
卫星状态:
在轨 (已飞行18345 天)
发射日期:
1975-12-22 UTC
国别 :
俄罗斯(独联体) (CIS)
星等 :
--
轨道信息
数据来源 国际轨道数据 AOE轨道数据
星历时间 2026-03-13T22:03:22+0800
11小时前
查看轨道信息
2026-03-13T07:00:00+0800
1天前
查看轨道信息
半长轴 42171.514km 42171.345km
偏心率 0.0004295 0.0004299
轨道倾角 3.049° 3.051°
近地点辐角 301.176° 297.009°
升交点赤经 268.078° 268.092°
平近点角 251.214° 28.964°
近地点 35775.264km 35775.078km
远地点 35811.49km 35811.338km
周期 1436.443分钟 1436.435分钟
每日圈数 1.002476 1.002482
详细信息
平衡模式:
三轴稳定
覆盖范围:
全球
运营商:
俄罗斯国家航天集团
运营商所在国:
俄罗斯
制造商(研发单位):
普里克拉德诺伊·梅哈尼基设计局
制造商所在国:
俄罗斯联邦
使用方式:
暂无
卫星简介
彩虹卫星(Raduga, Gran)是苏联用于军事和通信目的的一系列地球静止通信卫星。彩虹卫星旨在支持军事通信、Orbita地面电视网络,并在整个东半球(极地地区除外)提供电话和电报通信。该卫星已退役。
2D轨道图
3D轨道图
轨道高度分析图
轨道倾角分析图
轨道综合分析图
查看轨道综合分析图